Location: Unspecified
(41.5000°N, 0.0000°E)
Time: 19:42:38
(UTC+00:00)

Vanguard 2 - Pass Details

Date: 19 June 2019
Orbit: 554 x 2938 km, 32.9° (Epoch: 21 August)

Event Time Altitude Azimuth Distance (km) Brightness Sun altitude
Rises 09:05:20 0° 232° (SW) 3,383 10.6 49.3°
Reaches altitude 10° 09:07:36 10° 224° (SW) 2,666 10.2 49.7°
Maximum altitude 09:13:33 38° 158° (SSE) 1,865 10.5 50.8°
Drops below altitude 10° 09:22:57 10° 95° (E) 4,234 12.1 52.5°
Sets 09:27:32 0° 89° (E) 5,643 12.5 53.3°
